,,Stat6,,Stat2,,Stat8,,Stat9,,Stat10,,Wind1,,Wind1,
time,status,PA1M_AVG,status,PR1M_SUM,status,RH1M_AVG,status,SR1M_AVG,status,TA1M_AVG,status,W1dAve1m,status,W1sAve1m,
2004-11-25, 00:00:00,VALID,918.359,VALID,0,VALID,100,VALID,-0.0169808,VALID,19.1597,VALID,108,VALID,0.677778,
2004-11-25, 00:01:00,VALID,918.351,VALID,0,VALID,100,VALID,-0.0169808,VALID,19.1631,VALID,126,VALID,0.644531,
2004-11-25, 00:02:01,VALID,918.344,VALID,0,VALID,100,VALID,0,VALID,19.1564,VALID,138,VALID,0.518359,
2004-11-25, 00:03:00,VALID,918.326,VALID,0,VALID,100,VALID,0,VALID,19.1493,VALID,133,VALID,0.517987,
2004-11-25, 00:04:00,VALID,918.316,VALID,0,VALID,100,VALID,0.0169808,VALID,19.1396,VALID,123,VALID,0.461338,
2004-11-25, 00:05:00,VALID,918.307,VALID,0,VALID,100,VALID,0,VALID,19.1299,VALID,125,VALID,0.478924,
2004-11-25, 00:06:00,VALID,918.298,VALID,0,VALID,100,VALID,-0.0169808,VALID,19.1301,VALID,125,VALID,0.521949,
2004-11-25, 00:07:00,VALID,918.283,VALID,0,VALID,100,VALID,-0.0339617,VALID,19.117,VALID,127,VALID,0.419444,
2004-11-25, 00:08:00,VALID,918.274,VALID,0,VALID,100,VALID,-0.0339617,VALID,19.1408,VALID,128,VALID,0.114099,
2004-11-25, 00:09:00,VALID,918.262,VALID,0,VALID,100,VALID,0,VALID,19.1338,VALID,128,VALID,0,
2004-11-25, 00:10:00,VALID,918.245,VALID,0,VALID,100,VALID,0,VALID,19.1371,VALID,128,VALID,0.0508681,
2004-11-25, 00:11:01,VALID,918.253,VALID,0,VALID,100,VALID,-0.0169808,VALID,19.1306,VALID,128,VALID,0.0873047,
2004-11-25, 00:12:00,VALID,918.233,VALID,0,VALID,100,VALID,0,VALID,19.1239,VALID,128,VALID,0.00138889,
2004-11-25, 00:13:00,VALID,918.215,VALID,0,VALID,100,VALID,0,VALID,19.1082,VALID,128,VALID,0,
2004-11-25, 00:14:00,VALID,918.205,VALID,0,VALID,100,VALID,0.0169808,VALID,19.0978,VALID,128,VALID,0,
2004-11-25, 00:15:00,VALID,918.197,VALID,0,VALID,100,VALID,0,VALID,19.0782,VALID,128,VALID,0,
2004-11-25, 00:16:00,VALID,918.175,VALID,0,VALID,100,VALID,0,VALID,19.0722,VALID,128,VALID,0.163021,
2004-11-25, 00:17:00,VALID,918.172,VALID,0,VALID,100,VALID,0.0169808,VALID,19.0392,VALID,121,VALID,0.496181,
2004-11-25, 00:18:00,VALID,918.177,VALID,0,VALID,100,VALID,0,VALID,18.998,VALID,119,VALID,0.428906,
2004-11-25, 00:19:01,VALID,918.2,VALID,0,VALID,100,VALID,0,VALID,18.9463,VALID,119,VALID,0.371911,
2004-11-25, 00:20:00,VALID,918.193,VALID,0,VALID,100,VALID,0,VALID,18.9369,VALID,10,VALID,0.519159,
2004-11-25, 00:21:00,VALID,918.191,VALID,0,VALID,100,VALID,0,VALID,18.9622,VALID,347,VALID,0.255269,
2004-11-25, 00:22:00,VALID,918.2,VALID,0,VALID,100,VALID,0.0169808,VALID,18.9754,VALID,347,VALID,0.270486,
2004-11-25, 00:23:01,VALID,918.186,VALID,0,VALID,100,VALID,0,VALID,18.9692,VALID,347,VALID,0.371652,
2004-11-25, 00:24:00,VALID,918.18,VALID,0,VALID,100,VALID,0,VALID,18.9659,VALID,348,VALID,0.424538,
2004-11-25, 00:25:01,VALID,918.176,VALID,0,VALID,100,VALID,0,VALID,18.9463,VALID,349,VALID,0.288893,
2004-11-25, 00:26:00,VALID,918.156,VALID,0,VALID,100,VALID,0,VALID,18.9468,VALID,348,VALID,0.371264,
2004-11-25, 00:27:00,VALID,918.157,VALID,0,VALID,100,VALID,0,VALID,18.9595,VALID,348,VALID,0.448289,
2004-11-25, 00:28:00,VALID,918.153,VALID,0,VALID,100,VALID,0,VALID,18.9622,VALID,349,VALID,0.192188,
2004-11-25, 00:29:00,VALID,918.128,VALID,0,VALID,100,VALID,-0.0169808,VALID,18.9592,VALID,349,VALID,0.179142,
2004-11-25, 00:30:00,VALID,918.116,VALID,0,VALID,100,VALID,0,VALID,18.9498,VALID,348,VALID,0.134811,
2004-11-25, 00:31:00,VALID,918.104,VALID,0,VALID,100,VALID,0,VALID,18.953,VALID,347,VALID,0.0295351,
2004-11-25, 00:32:01,VALID,918.098,VALID,0,VALID,100,VALID,0,VALID,18.9629,VALID,347,VALID,0,
2004-11-25, 00:33:00,VALID,918.094,VALID,0,VALID,100,VALID,0,VALID,18.9692,VALID,347,VALID,0,
2004-11-25, 00:34:00,VALID,918.091,VALID,0,VALID,100,VALID,-0.0169808,VALID,18.956,VALID,347,VALID,0,
2004-11-25, 00:35:00,VALID,918.073,VALID,0,VALID,100,VALID,0,VALID,18.9562,VALID,347,VALID,0.084517,
2004-11-25, 00:36:01,VALID,918.057,VALID,0,VALID,100,VALID,0,VALID,18.9655,VALID,347,VALID,0.0515625,
2004-11-25, 00:37:00,VALID,918.03,VALID,0,VALID,100,VALID,0,VALID,18.9816,VALID,347,VALID,0.267442,
2004-11-25, 00:38:01,VALID,918.01,VALID,0,VALID,100,VALID,0,VALID,18.9885,VALID,347,VALID,0.220203,
2004-11-25, 00:39:01,VALID,918.002,VALID,0,VALID,100,VALID,0,VALID,18.9821,VALID,347,VALID,0.255526,
2004-11-25, 00:40:00,VALID,917.983,VALID,0,VALID,100,VALID,0,VALID,18.9659,VALID,347,VALID,0.362805,
2004-11-25, 00:41:01,VALID,917.973,VALID,0,VALID,100,VALID,0,VALID,18.9495,VALID,349,VALID,0.390807,
2004-11-25, 00:42:01,VALID,917.954,VALID,0,VALID,100,VALID,-0.0169808,VALID,18.9272,VALID,349,VALID,0.159157,
2004-11-25, 00:43:00,VALID,917.972,VALID,0,VALID,100,VALID,-0.0169808,VALID,18.9272,VALID,276,VALID,0.673363,
2004-11-25, 00:44:00,VALID,917.973,VALID,0,VALID,100,VALID,-0.0169808,VALID,18.9468,VALID,236,VALID,0.795387,
2004-11-25, 00:45:00,VALID,917.953,VALID,0,VALID,100,VALID,0,VALID,18.9595,VALID,236,VALID,0.327925,
2004-11-25, 00:46:01,VALID,917.941,VALID,0,VALID,100,VALID,0.0339617,VALID,18.9855,VALID,236,VALID,0,
2004-11-25, 00:47:00,VALID,917.933,VALID,0,VALID,100,VALID,0,VALID,19.0014,VALID,236,VALID,0.00111607,
2004-11-25, 00:48:00,VALID,917.919,VALID,0,VALID,100,VALID,0,VALID,18.9846,VALID,236,VALID,0,
2004-11-25, 00:49:00,VALID,917.903,VALID,0,VALID,100,VALID,-0.0169808,VALID,18.9977,VALID,236,VALID,0,
2004-11-25, 00:50:00,VALID,917.899,VALID,0,VALID,100,VALID,0.0339617,VALID,19.0044,VALID,236,VALID,0,
2004-11-25, 00:51:00,VALID,917.886,VALID,0,VALID,100,VALID,0.0169808,VALID,19.0114,VALID,236,VALID,0,
2004-11-25, 00:52:00,VALID,917.874,VALID,0,VALID,100,VALID,-0.0169808,VALID,19.0111,VALID,236,VALID,0,
2004-11-25, 00:53:01,VALID,917.858,VALID,0,VALID,100,VALID,0,VALID,19.0049,VALID,236,VALID,0,
2004-11-25, 00:54:00,VALID,917.837,VALID,0,VALID,100,VALID,0,VALID,18.9948,VALID,236,VALID,0.0832741,
2004-11-25, 00:55:01,VALID,917.84,VALID,0,VALID,100,VALID,0.0169808,VALID,18.998,VALID,236,VALID,0.0524306,
2004-11-25, 00:56:01,VALID,917.844,VALID,0,VALID,100,VALID,0,VALID,19.0014,VALID,236,VALID,0,
2004-11-25, 00:57:00,VALID,917.839,VALID,0,VALID,100,VALID,0.0339617,VALID,18.9913,VALID,212,VALID,0.411156,
2004-11-25, 00:58:00,VALID,917.834,VALID,0,VALID,100,VALID,0.0169808,VALID,18.9918,VALID,179,VALID,0.827943,
2004-11-25, 00:59:00,VALID,917.838,VALID,0,VALID,100,VALID,0.0169808,VALID,18.9851,VALID,181,VALID,0.77798,
2004-11-25, 01:00:00,VALID,917.845,VALID,0,VALID,100,VALID,0.0169808,VALID,19.0015,VALID,201,VALID,0.389323,
2004-11-25, 01:01:01,VALID,917.844,VALID,0,VALID,100,VALID,0,VALID,19.0077,VALID,201,VALID,0.0924162,
2004-11-25, 01:02:00,VALID,917.839,VALID,0,VALID,100,VALID,0,VALID,19.0206,VALID,201,VALID,0,
2004-11-25, 01:03:00,VALID,917.829,VALID,0,VALID,100,VALID,0,VALID,19.0402,VALID,201,VALID,0,
2004-11-25, 01:04:01,VALID,917.802,VALID,0,VALID,100,VALID,0.0169808,VALID,19.0563,VALID,201,VALID,0,
2004-11-25, 01:05:00,VALID,917.793,VALID,0,VALID,100,VALID,0,VALID,19.0529,VALID,201,VALID,0,
2004-11-25, 01:06:01,VALID,917.769,VALID,0,VALID,100,VALID,0.0339617,VALID,19.0464,VALID,201,VALID,0,
2004-11-25, 01:07:01,VALID,917.751,VALID,0,VALID,100,VALID,0,VALID,19.0598,VALID,201,VALID,0.0470486,
2004-11-25, 01:08:01,VALID,917.727,VALID,0,VALID,100,VALID,0.0169808,VALID,19.0487,VALID,201,VALID,0.272529,
2004-11-25, 01:09:01,VALID,917.716,VALID,0,VALID,100,VALID,-0.0169808,VALID,19.0658,VALID,202,VALID,0.407227,
2004-11-25, 01:10:01,VALID,917.691,VALID,0,VALID,100,VALID,0.0169808,VALID,19.0531,VALID,276,VALID,0.518864,
2004-11-25, 01:11:01,VALID,917.69,VALID,0,VALID,100,VALID,0.0339617,VALID,19.0236,VALID,15,VALID,0.412574,
2004-11-25, 01:12:01,VALID,917.682,VALID,0,VALID,100,VALID,0,VALID,18.998,VALID,15,VALID,0.458333,
2004-11-25, 01:13:01,VALID,917.667,VALID,0,VALID,100,VALID,0,VALID,18.9463,VALID,15,VALID,0.481076,
2004-11-25, 01:14:00,VALID,917.655,VALID,0,VALID,100,VALID,0.0339617,VALID,18.9175,VALID,15,VALID,0.580793,
2004-11-25, 01:15:01,VALID,917.64,VALID,0,VALID,100,VALID,0.0169808,VALID,18.8981,VALID,15,VALID,0.435902,
2004-11-25, 01:16:00,VALID,917.629,VALID,0,VALID,100,VALID,0.0169808,VALID,18.8626,VALID,14,VALID,0.338068,
2004-11-25, 01:17:01,VALID,917.606,VALID,0,VALID,100,VALID,-0.0849042,VALID,18.8543,VALID,12,VALID,0.639583,
2004-11-25, 01:18:01,VALID,917.592,VALID,0,VALID,100,VALID,-0.101885,VALID,18.8476,VALID,12,VALID,0.978125,
2004-11-25, 01:19:01,VALID,917.571,VALID,0,VALID,100,VALID,-0.101885,VALID,18.8735,VALID,24,VALID,1.04688,
2004-11-25, 01:20:01,VALID,917.562,VALID,0,VALID,100,VALID,-0.0849042,VALID,18.8836,VALID,29,VALID,0.773438,
2004-11-25, 01:21:01,VALID,917.543,VALID,0,VALID,100,VALID,-0.101885,VALID,18.8933,VALID,29,VALID,0.264453,
2004-11-25, 01:22:01,VALID,917.539,VALID,0,VALID,100,VALID,-0.101885,VALID,18.8894,VALID,29,VALID,0.404251,
2004-11-25, 01:23:01,VALID,917.502,VALID,0,VALID,100,VALID,-0.101885,VALID,18.8991,VALID,21,VALID,0.887005,
2004-11-25, 01:24:01,VALID,917.491,VALID,0,VALID,100,VALID,-0.101885,VALID,18.9083,VALID,4,VALID,1.35956,
2004-11-25, 01:25:01,VALID,917.487,VALID,0,VALID,100,VALID,-0.0509425,VALID,18.9152,VALID,1,VALID,1.31962,
2004-11-25, 01:26:01,VALID,917.49,VALID,0,VALID,100,VALID,-0.101885,VALID,18.9316,VALID,355,VALID,1.09415,
2004-11-25, 01:27:01,VALID,917.477,VALID,0,VALID,100,VALID,-0.0679233,VALID,18.9411,VALID,6,VALID,0.748047,
2004-11-25, 01:28:01,VALID,917.467,VALID,0,VALID,100,VALID,-0.0849042,VALID,18.9542,VALID,359,VALID,0.811384,
2004-11-25, 01:29:01,VALID,917.464,VALID,0,VALID,100,VALID,-0.0849042,VALID,18.984,VALID,18,VALID,0.761541,
2004-11-25, 01:30:01,VALID,917.443,VALID,0,VALID,100,VALID,-0.0849042,VALID,18.9574,VALID,352,VALID,0.892624,
2004-11-25, 01:31:01,VALID,917.427,VALID,0,VALID,100,VALID,-0.0849042,VALID,18.948,VALID,325,VALID,0.799279,
2004-11-25, 01:32:01,VALID,917.429,VALID,0,VALID,100,VALID,0,VALID,18.9304,VALID,332,VALID,0.53032,
2004-11-25, 01:33:01,VALID,917.424,VALID,0,VALID,100,VALID,-0.0169808,VALID,18.9304,VALID,15,VALID,0.919207,
2004-11-25, 01:34:01,VALID,917.422,VALID,0,VALID,100,VALID,-0.0169808,VALID,18.9274,VALID,360,VALID,0.92207,
2004-11-25, 01:35:01,VALID,917.426,VALID,0,VALID,100,VALID,0,VALID,18.9076,VALID,353,VALID,0.503348,
2004-11-25, 01:36:01,VALID,917.412,VALID,0,VALID,100,VALID,0,VALID,18.9205,VALID,4,VALID,0.361852,
2004-11-25, 01:37:01,VALID,917.43,VALID,0,VALID,100,VALID,0.0169808,VALID,18.9041,VALID,305,VALID,0.590234,
2004-11-25, 01:38:01,VALID,917.433,VALID,0,VALID,100,VALID,0.0169808,VALID,18.888,VALID,355,VALID,0.717882,
2004-11-25, 01:39:01,VALID,917.416,VALID,0,VALID,100,VALID,0.0339617,VALID,18.8813,VALID,3,VALID,0.982143,
2004-11-25, 01:40:01,VALID,917.406,VALID,0,VALID,100,VALID,0.0339617,VALID,18.8688,VALID,11,VALID,0.908854,
2004-11-25, 01:41:01,VALID,917.398,VALID,0,VALID,100,VALID,0.0339617,VALID,18.8684,VALID,17,VALID,1.11626,
2004-11-25, 01:42:01,VALID,917.388,VALID,0,VALID,100,VALID,0.0679233,VALID,18.8654,VALID,21,VALID,0.885485,
2004-11-25, 01:43:01,VALID,917.367,VALID,0,VALID,100,VALID,0.0169808,VALID,18.8524,VALID,3,VALID,0.853646,
2004-11-25, 01:44:01,VALID,917.352,VALID,0,VALID,100,VALID,0.0169808,VALID,18.8467,VALID,360,VALID,0.69112,
2004-11-25, 01:45:01,VALID,917.341,VALID,0,VALID,100,VALID,0.0509425,VALID,18.8328,VALID,355,VALID,0.751215,
2004-11-25, 01:46:01,VALID,917.333,VALID,0,VALID,100,VALID,0.0169808,VALID,18.8527,VALID,12,VALID,1.15293,
2004-11-25, 01:47:01,VALID,917.313,VALID,0,VALID,100,VALID,0.0169808,VALID,18.8495,VALID,29,VALID,0.950347,
2004-11-25, 01:48:01,VALID,917.308,VALID,0,VALID,100,VALID,0.0169808,VALID,18.8564,VALID,6,VALID,0.812678,
2004-11-25, 01:49:01,VALID,917.301,VALID,0,VALID,100,VALID,0,VALID,18.8301,VALID,349,VALID,0.839757,
2004-11-25, 01:50:00,VALID,917.292,VALID,0,VALID,100,VALID,0,VALID,18.8077,VALID,355,VALID,0.780849,
2004-11-25, 01:51:00,VALID,917.28,VALID,0,VALID,100,VALID,0.0169808,VALID,18.8174,VALID,22,VALID,1.08345,
2004-11-25, 01:52:00,VALID,917.26,VALID,0,VALID,100,VALID,0,VALID,18.8368,VALID,9,VALID,0.773828,
2004-11-25, 01:53:00,VALID,917.255,VALID,0,VALID,100,VALID,0,VALID,18.8656,VALID,21,VALID,0.938715,
2004-11-25, 01:54:00,VALID,917.246,VALID,0,VALID,100,VALID,0,VALID,18.8596,VALID,19,VALID,1.05645,
2004-11-25, 01:55:00,VALID,917.239,VALID,0,VALID,100,VALID,0,VALID,18.8723,VALID,11,VALID,0.855945,
2004-11-25, 01:56:00,VALID,917.234,VALID,0,VALID,100,VALID,0,VALID,18.8947,VALID,23,VALID,0.703869,
2004-11-25, 01:57:00,VALID,917.216,VALID,0,VALID,100,VALID,0,VALID,18.885,VALID,5,VALID,0.705669,
2004-11-25, 01:58:00,VALID,917.208,VALID,0,VALID,100,VALID,0,VALID,18.8723,VALID,7,VALID,0.927641,
2004-11-25, 01:59:00,VALID,917.198,VALID,0,VALID,100,VALID,0.0169808,VALID,18.8792,VALID,14,VALID,1.3112,
2004-11-25, 02:00:00,VALID,917.195,VALID,0,VALID,100,VALID,0,VALID,18.8561,VALID,10,VALID,1.29129,
2004-11-25, 02:01:00,VALID,917.192,VALID,0,VALID,100,VALID,-0.0169808,VALID,18.8502,VALID,346,VALID,0.830208,
2004-11-25, 02:02:00,VALID,917.18,VALID,0,VALID,100,VALID,-0.0169808,VALID,18.8465,VALID,8,VALID,0.542039,
2004-11-25, 02:03:00,VALID,917.186,VALID,0,VALID,100,VALID,0.0169808,VALID,18.8721,VALID,11,VALID,0.151242,
2004-11-25, 02:04:00,VALID,917.178,VALID,0,VALID,100,VALID,0.0169808,VALID,18.8981,VALID,22,VALID,0.552083,
2004-11-25, 02:05:00,VALID,917.174,VALID,0,VALID,100,VALID,-0.0169808,VALID,18.921,VALID,24,VALID,0.699673,
2004-11-25, 02:06:00,VALID,917.175,VALID,0,VALID,100,VALID,-0.0169808,VALID,18.9436,VALID,24,VALID,0.382031,
2004-11-25, 02:07:00,VALID,917.16,VALID,0,VALID,100,VALID,0,VALID,18.9592,VALID,26,VALID,0.65625,
2004-11-25, 02:08:00,VALID,917.145,VALID,0,VALID,100,VALID,0.0169808,VALID,18.9948,VALID,31,VALID,0.465625,
2004-11-25, 02:09:00,VALID,917.157,VALID,0,VALID,100,VALID,-0.0169808,VALID,19.0109,VALID,29,VALID,0.46733,
2004-11-25, 02:10:00,VALID,917.141,VALID,0,VALID,100,VALID,0,VALID,19.0176,VALID,18,VALID,0.858173,
2004-11-25, 02:11:00,VALID,917.116,VALID,0,VALID,100,VALID,-0.0169808,VALID,19.0273,VALID,18,VALID,1.48818,
2004-11-25, 02:12:00,VALID,917.107,VALID,0,VALID,100,VALID,0,VALID,19.0148,VALID,23,VALID,1.28182,
2004-11-25, 02:13:00,VALID,917.112,VALID,0,VALID,100,VALID,0,VALID,19.0148,VALID,22,VALID,1.02973,
2004-11-25, 02:14:00,VALID,917.098,VALID,0,VALID,100,VALID,0,VALID,19.0241,VALID,4,VALID,0.434549,
2004-11-25, 02:15:00,VALID,917.106,VALID,0,VALID,100,VALID,0,VALID,19.0303,VALID,5,VALID,0.208079,
2004-11-25, 02:16:00,VALID,917.096,VALID,0,VALID,100,VALID,-0.0339617,VALID,19.0439,VALID,13,VALID,0.530185,
2004-11-25, 02:17:00,VALID,917.085,VALID,0,VALID,100,VALID,-0.118866,VALID,19.0449,VALID,18,VALID,1.12021,
2004-11-25, 02:18:00,VALID,917.098,VALID,0,VALID,100,VALID,-0.135847,VALID,19.0416,VALID,19,VALID,0.832849,
2004-11-25, 02:19:00,VALID,917.097,VALID,0,VALID,100,VALID,-0.118866,VALID,19.0483,VALID,20,VALID,0.403193,
2004-11-25, 02:20:00,VALID,917.097,VALID,0,VALID,100,VALID,-0.0849042,VALID,19.0382,VALID,14,VALID,0.370908,
2004-11-25, 02:21:00,VALID,917.094,VALID,0,VALID,100,VALID,-0.101885,VALID,19.0091,VALID,12,VALID,0.0559896,
2004-11-25, 02:22:00,VALID,917.104,VALID,0,VALID,100,VALID,-0.101885,VALID,19.0156,VALID,12,VALID,0.0881944,
2004-11-25, 02:23:00,VALID,917.095,VALID,0,VALID,100,VALID,-0.101885,VALID,19.0359,VALID,12,VALID,0.0714286,
2004-11-25, 02:24:00,VALID,917.112,VALID,0,VALID,100,VALID,-0.101885,VALID,19.0218,VALID,11,VALID,0.000710227,
2004-11-25, 02:25:00,VALID,917.1,VALID,0,VALID,100,VALID,-0.118866,VALID,19.022,VALID,11,VALID,0.0175781,
2004-11-25, 02:26:00,VALID,917.086,VALID,0,VALID,100,VALID,-0.101885,VALID,19.0126,VALID,19,VALID,0.361555,
2004-11-25, 02:27:00,VALID,917.075,VALID,0,VALID,100,VALID,-0.101885,VALID,19.016,VALID,30,VALID,0.785239,
2004-11-25, 02:28:00,VALID,917.076,VALID,0,VALID,100,VALID,-0.118866,VALID,19.0257,VALID,17,VALID,1.04535,
2004-11-25, 02:29:00,VALID,917.057,VALID,0,VALID,100,VALID,-0.118866,VALID,19.0424,VALID,8,VALID,0.833705,
2004-11-25, 02:30:00,VALID,917.033,VALID,0,VALID,100,VALID,-0.101885,VALID,19.0064,VALID,355,VALID,0.752362,
2004-11-25, 02:31:00,VALID,917.024,VALID,0.2,VALID,100,VALID,-0.118866,VALID,19.0163,VALID,350,VALID,0.514353,
2004-11-25, 02:32:00,VALID,917.018,VALID,0,VALID,100,VALID,0,VALID,19.0211,VALID,353,VALID,0.637835,
2004-11-25, 02:33:00,VALID,917.006,VALID,0,VALID,100,VALID,-0.0169808,VALID,19.028,VALID,19,VALID,0.761628,
2004-11-25, 02:34:00,VALID,916.983,VALID,0,VALID,100,VALID,0,VALID,19.0633,VALID,28,VALID,0.437318,
2004-11-25, 02:35:00,VALID,916.981,VALID,0,VALID,100,VALID,-0.0169808,VALID,19.0824,VALID,28,VALID,0.301711,
2004-11-25, 02:36:00,VALID,916.97,VALID,0,VALID,100,VALID,-0.0339617,VALID,19.0854,VALID,28,VALID,0.583984,
2004-11-25, 02:37:00,VALID,916.96,VALID,0,VALID,100,VALID,-0.0169808,VALID,19.1112,VALID,28,VALID,0.50109,
2004-11-25, 02:38:00,VALID,916.945,VALID,0,VALID,100,VALID,-0.0339617,VALID,19.1209,VALID,25,VALID,0.954649,
2004-11-25, 02:39:00,VALID,916.916,VALID,0,VALID,100,VALID,-0.0169808,VALID,19.0886,VALID,353,VALID,1.1342,
2004-11-25, 02:40:00,VALID,916.911,VALID,0,VALID,100,VALID,-0.0169808,VALID,19.0305,VALID,338,VALID,1.07257,
2004-11-25, 02:41:00,VALID,916.898,VALID,0,VALID,100,VALID,0,VALID,19.0044,VALID,340,VALID,1.08612,
2004-11-25, 02:42:00,VALID,916.902,VALID,0,VALID,100,VALID,-0.0169808,VALID,18.9883,VALID,355,VALID,0.654535,
2004-11-25, 02:43:00,VALID,916.882,VALID,0,VALID,100,VALID,-0.0169808,VALID,18.995,VALID,350,VALID,0.515439,
2004-11-25, 02:44:00,VALID,916.875,VALID,0,VALID,100,VALID,0.0169808,VALID,18.9853,VALID,306,VALID,0.664063,
2004-11-25, 02:45:00,VALID,916.858,VALID,0,VALID,100,VALID,-0.0169808,VALID,18.9855,VALID,330,VALID,0.449219,
2004-11-25, 02:46:00,VALID,916.845,VALID,0,VALID,100,VALID,0,VALID,19.0109,VALID,29,VALID,0.555729,
2004-11-25, 02:47:00,VALID,916.827,VALID,0,VALID,100,VALID,-0.101885,VALID,19.0409,VALID,25,VALID,0.364644,
2004-11-25, 02:48:00,VALID,916.809,VALID,0,VALID,100,VALID,-0.118866,VALID,19.0864,VALID,25,VALID,0.0236235,
2004-11-25, 02:49:00,VALID,916.787,VALID,0,VALID,100,VALID,-0.101885,VALID,19.1028,VALID,17,VALID,0.462891,
2004-11-25, 02:50:00,VALID,916.776,VALID,0,VALID,100,VALID,-0.101885,VALID,19.1189,VALID,18,VALID,0.272436,
2004-11-25, 02:51:00,VALID,916.767,VALID,0,VALID,100,VALID,-0.101885,VALID,19.1028,VALID,352,VALID,0.318979,
2004-11-25, 02:52:00,VALID,916.751,VALID,0,VALID,100,VALID,-0.101885,VALID,19.0836,VALID,336,VALID,0.306818,
2004-11-25, 02:53:00,VALID,916.748,VALID,0,VALID,100,VALID,-0.101885,VALID,19.0638,VALID,360,VALID,0.368555,
2004-11-25, 02:54:00,VALID,916.745,VALID,0,VALID,100,VALID,-0.101885,VALID,19.0675,VALID,360,VALID,0.101744,
2004-11-25, 02:55:00,VALID,916.739,VALID,0,VALID,100,VALID,-0.118866,VALID,19.0868,VALID,360,VALID,0,
2004-11-25, 02:56:00,VALID,916.749,VALID,0,VALID,100,VALID,-0.0849042,VALID,19.0831,VALID,360,VALID,0.090625,
2004-11-25, 02:57:00,VALID,916.742,VALID,0,VALID,100,VALID,-0.101885,VALID,19.0861,VALID,360,VALID,0,
2004-11-25, 02:58:00,VALID,916.74,VALID,0,VALID,100,VALID,-0.0679233,VALID,19.1062,VALID,360,VALID,0,
2004-11-25, 02:59:00,VALID,916.738,VALID,0,VALID,100,VALID,-0.0679233,VALID,19.0933,VALID,359,VALID,0.149796,
2004-11-25, 03:00:00,VALID,916.741,VALID,0,VALID,100,VALID,-0.0849042,VALID,19.0931,VALID,336,VALID,0.32976,
2004-11-25, 03:01:00,VALID,916.734,VALID,0,VALID,100,VALID,-0.101885,VALID,19.0737,VALID,223,VALID,0.452947,
2004-11-25, 03:02:00,VALID,916.723,VALID,0,VALID,100,VALID,0.0169808,VALID,19.0459,VALID,225,VALID,0.320685,
2004-11-25, 03:03:00,VALID,916.714,VALID,0,VALID,100,VALID,0,VALID,19.0429,VALID,225,VALID,0.0366848,
2004-11-25, 03:04:00,VALID,916.703,VALID,0,VALID,100,VALID,0,VALID,19.0596,VALID,225,VALID,0,
2004-11-25, 03:05:00,VALID,916.688,VALID,0,VALID,100,VALID,0,VALID,19.0656,VALID,225,VALID,0,
2004-11-25, 03:06:00,VALID,916.68,VALID,0,VALID,100,VALID,0,VALID,19.0886,VALID,226,VALID,0,
2004-11-25, 03:07:00,VALID,916.646,VALID,0,VALID,100,VALID,0,VALID,19.1207,VALID,227,VALID,0.0893111,
2004-11-25, 03:08:00,VALID,916.625,VALID,0,VALID,100,VALID,0,VALID,19.1207,VALID,7,VALID,0.424653,
2004-11-25, 03:09:00,VALID,916.604,VALID,0,VALID,100,VALID,0,VALID,19.1237,VALID,14,VALID,0.360577,
2004-11-25, 03:10:00,VALID,916.573,VALID,0,VALID,100,VALID,0,VALID,19.1532,VALID,14,VALID,0.599382,
2004-11-25, 03:11:00,VALID,916.548,VALID,0,VALID,100,VALID,-0.0169808,VALID,19.1597,VALID,14,VALID,0.708705,
2004-11-25, 03:12:00,VALID,916.514,VALID,0,VALID,100,VALID,0,VALID,19.1694,VALID,26,VALID,1.4146,
2004-11-25, 03:13:00,VALID,916.511,VALID,0,VALID,100,VALID,0,VALID,19.1627,VALID,17,VALID,1.27925,
2004-11-25, 03:14:00,VALID,916.5,VALID,0,VALID,100,VALID,0.0169808,VALID,19.1465,VALID,31,VALID,0.756138,
2004-11-25, 03:15:00,VALID,916.497,VALID,0,VALID,100,VALID,0,VALID,19.1396,VALID,22,VALID,0.48125,
2004-11-25, 03:16:00,VALID,916.487,VALID,0,VALID,100,VALID,0,VALID,19.1433,VALID,19,VALID,0.731641,
2004-11-25, 03:17:00,VALID,916.486,VALID,0,VALID,100,VALID,0.0169808,VALID,19.1527,VALID,21,VALID,1.01599,
2004-11-25, 03:18:00,VALID,916.484,VALID,0,VALID,100,VALID,-0.0169808,VALID,19.1761,VALID,25,VALID,0.964286,
2004-11-25, 03:19:00,VALID,916.475,VALID,0,VALID,100,VALID,0,VALID,19.1788,VALID,30,VALID,0.858333,
2004-11-25, 03:20:00,VALID,916.48,VALID,0,VALID,100,VALID,0,VALID,19.1661,VALID,29,VALID,0.779433,
2004-11-25, 03:21:00,VALID,916.462,VALID,0,VALID,100,VALID,-0.0169808,VALID,19.1696,VALID,22,VALID,0.956364,
2004-11-25, 03:22:00,VALID,916.45,VALID,0,VALID,100,VALID,0,VALID,19.1887,VALID,23,VALID,1.05033,
2004-11-25, 03:23:00,VALID,916.46,VALID,0,VALID,100,VALID,0,VALID,19.1917,VALID,23,VALID,0.980196,
2004-11-25, 03:24:00,VALID,916.463,VALID,0,VALID,100,VALID,0.0169808,VALID,19.1945,VALID,23,VALID,0.674237,
2004-11-25, 03:25:00,VALID,916.459,VALID,0,VALID,100,VALID,-0.0169808,VALID,19.1977,VALID,23,VALID,0.49256,
2004-11-25, 03:26:00,VALID,916.445,VALID,0,VALID,100,VALID,0.0169808,VALID,19.2106,VALID,23,VALID,0.299006,
2004-11-25, 03:27:00,VALID,916.433,VALID,0,VALID,100,VALID,0,VALID,19.2044,VALID,23,VALID,0.464286,
2004-11-25, 03:28:00,VALID,916.42,VALID,0,VALID,100,VALID,0,VALID,19.2017,VALID,24,VALID,0.752486,
2004-11-25, 03:29:00,VALID,916.413,VALID,0,VALID,100,VALID,0,VALID,19.1783,VALID,19,VALID,1.34889,
2004-11-25, 03:30:00,VALID,916.395,VALID,0,VALID,100,VALID,0,VALID,19.1619,VALID,22,VALID,0.994186,
2004-11-25, 03:31:00,VALID,916.406,VALID,0,VALID,100,VALID,0,VALID,19.156,VALID,19,VALID,0.594336,
2004-11-25, 03:32:00,VALID,916.39,VALID,0,VALID,100,VALID,-0.0169808,VALID,19.1627,VALID,8,VALID,0.869978,
2004-11-25, 03:33:00,VALID,916.394,VALID,0,VALID,100,VALID,0,VALID,19.1527,VALID,18,VALID,0.90843,
2004-11-25, 03:34:00,VALID,916.38,VALID,0,VALID,100,VALID,0,VALID,19.1564,VALID,35,VALID,0.509811,
2004-11-25, 03:35:00,VALID,916.375,VALID,0,VALID,100,VALID,-0.0169808,VALID,19.1463,VALID,35,VALID,0.261433,
2004-11-25, 03:36:00,VALID,916.377,VALID,0,VALID,100,VALID,0,VALID,19.1562,VALID,34,VALID,0.528582,
2004-11-25, 03:37:00,VALID,916.378,VALID,0,VALID,100,VALID,0.0169808,VALID,19.1592,VALID,11,VALID,0.579492,
2004-11-25, 03:38:00,VALID,916.368,VALID,0,VALID,100,VALID,0.0339617,VALID,19.1912,VALID,353,VALID,0.56875,
2004-11-25, 03:39:00,VALID,916.37,VALID,0,VALID,100,VALID,0,VALID,19.1463,VALID,329,VALID,0.65843,
2004-11-25, 03:40:00,VALID,916.362,VALID,0,VALID,100,VALID,0.0509425,VALID,19.1493,VALID,24,VALID,0.602493,
2004-11-25, 03:41:00,VALID,916.371,VALID,0,VALID,100,VALID,0.0169808,VALID,19.1557,VALID,24,VALID,0.752418,
2004-11-25, 03:42:00,VALID,916.386,VALID,0,VALID,100,VALID,0.0169808,VALID,19.1753,VALID,17,VALID,0.469113,
2004-11-25, 03:43:00,VALID,916.399,VALID,0,VALID,100,VALID,0.0169808,VALID,19.123,VALID,350,VALID,0.693403,
2004-11-25, 03:44:00,VALID,916.41,VALID,0,VALID,100,VALID,0,VALID,19.1172,VALID,311,VALID,0.713796,
2004-11-25, 03:45:00,VALID,916.44,VALID,0,VALID,100,VALID,0,VALID,19.1016,VALID,340,VALID,0.741257,